�N����,����,�~����,�C��,���x,�C��,����,���ϕ���,�ő�u�ԕ���,�ő厞����,���˗�,�I�_���x,�n�����x,�ő啗���N��,DTYPE
"17/02/08","00:10",0.0,3.0,67.1,1013.0,277.1,2.7,5.1,338.6,0.00,-2.5,5.4,"00:02:32",1
"17/02/08","00:20",0.0,3.0,67.2,1013.3,291.6,2.1,4.3,328.4,0.00,-2.4,5.3,"00:13:28",1
"17/02/08","00:30",0.0,3.0,67.4,1013.0,275.2,2.3,4.2,256.6,0.00,-2.4,5.3,"00:28:24",1
"17/02/08","00:40",0.0,2.9,67.8,1012.6,288.6,2.1,3.5,260.2,0.00,-2.4,5.3,"00:31:04",1
"17/02/08","00:50",0.0,2.9,68.4,1012.8,283.4,1.7,2.8,333.7,0.00,-2.3,5.1,"00:40:56",1
"17/02/08","01:00",0.0,2.7,68.6,1012.6,299.3,1.8,2.9,310.8,0.00,-2.5,5.2,"00:50:56",1
"17/02/08","01:10",0.0,2.5,69.5,1012.1,305.5,2.2,3.9,345.2,0.00,-2.5,5.2,"01:08:56",1
"17/02/08","01:20",0.0,2.5,70.2,1013.0,304.0,2.7,4.2,320.7,0.00,-2.3,5.2,"01:12:32",1
"17/02/08","01:30",0.0,2.7,70.6,1012.6,308.8,2.7,5.1,326.0,0.00,-2.1,4.9,"01:24:16",1
"17/02/08","01:40",0.0,2.6,70.5,1012.3,290.1,1.7,3.1,317.9,0.00,-2.2,5.0,"01:30:32",1
"17/02/08","01:50",0.0,2.6,71.0,1012.3,294.9,1.6,2.6,325.5,0.00,-2.1,5.0,"01:49:28",1
"17/02/08","02:00",0.0,2.5,71.5,1012.3,283.4,1.7,3.5,316.1,0.00,-2.1,5.0,"01:58:56",1
"17/02/08","02:10",0.0,2.6,71.5,1012.6,285.0,1.7,2.9,324.1,0.00,-2.0,5.2,"02:08:48",1
"17/02/08","02:20",0.0,2.6,71.4,1012.1,292.1,1.8,3.4,317.5,0.00,-2.0,4.9,"02:12:40",1
"17/02/08","02:30",0.0,2.5,71.9,1012.3,310.1,1.7,3.3,318.4,0.00,-2.0,5.1,"02:28:08",1
"17/02/08","02:40",0.0,2.4,73.1,1012.1,307.1,1.5,2.2,318.8,0.00,-1.9,4.9,"02:39:04",1
"17/02/08","02:50",0.0,2.3,73.8,1011.9,285.5,1.5,2.8,315.1,0.00,-1.8,4.9,"02:40:48",1
"17/02/08","03:00",0.0,2.4,73.0,1011.9,290.8,1.7,3.3,326.8,0.00,-1.9,4.9,"02:50:08",1
"17/02/08","03:10",0.0,2.4,73.1,1011.9,293.3,1.6,3.1,315.3,0.00,-1.9,4.8,"03:00:48",1
"17/02/08","03:20",0.0,2.4,73.9,1011.9,289.1,1.3,3.1,324.0,0.00,-1.7,5.0,"03:19:52",1
"17/02/08","03:30",0.0,2.1,76.0,1011.6,321.2,1.8,3.9,316.8,0.00,-1.6,4.7,"03:28:56",1
"17/02/08","03:40",0.0,2.0,77.2,1011.2,297.8,1.6,3.1,328.8,0.00,-1.5,4.9,"03:32:08",1
"17/02/08","03:50",0.0,2.2,77.0,1011.6,302.3,1.8,2.5,316.0,0.00,-1.4,4.8,"03:45:36",1
"17/02/08","04:00",0.0,2.3,76.5,1011.6,300.6,1.8,2.8,322.8,0.00,-1.4,4.8,"03:54:48",1
"17/02/08","04:10",0.0,2.5,74.6,1012.1,287.6,2.0,4.7,326.7,0.00,-1.5,4.9,"04:08:08",1
"17/02/08","04:20",0.0,2.7,73.4,1011.4,285.6,2.2,3.6,311.4,0.00,-1.5,4.9,"04:11:20",1
"17/02/08","04:30",0.0,2.7,73.5,1011.9,281.8,1.6,2.5,308.2,0.00,-1.5,4.9,"04:24:08",1
"17/02/08","04:40",0.0,2.6,73.5,1011.6,291.9,1.8,3.5,263.2,0.00,-1.6,4.8,"04:39:36",1
"17/02/08","04:50",0.0,2.7,74.0,1011.6,299.5,2.2,3.5,311.8,0.00,-1.4,4.8,"04:41:04",1
"17/02/08","05:00",0.0,2.6,74.6,1011.9,291.5,1.7,2.8,325.0,0.00,-1.4,4.8,"04:58:16",1
"17/02/08","05:10",0.0,2.7,73.9,1011.4,279.4,1.8,2.8,303.4,0.00,-1.4,4.6,"05:08:40",1
"17/02/08","05:20",0.0,2.8,72.8,1012.1,288.5,2.2,3.6,300.1,0.00,-1.6,4.7,"05:13:12",1
"17/02/08","05:30",0.0,2.9,72.6,1011.9,286.1,2.0,2.9,269.9,0.00,-1.5,4.7,"05:25:20",1
"17/02/08","05:40",0.0,2.8,73.5,1011.4,303.1,1.6,2.7,319.7,0.00,-1.4,4.8,"05:34:48",1
"17/02/08","05:50",0.0,2.7,73.7,1011.6,286.5,2.0,3.2,295.6,0.00,-1.5,4.7,"05:46:16",1
"17/02/08","06:00",0.0,2.8,72.1,1012.3,286.4,2.3,3.9,311.1,0.00,-1.7,4.8,"05:53:20",1
"17/02/08","06:10",0.0,3.0,71.1,1011.9,275.8,2.5,3.9,307.5,0.00,-1.7,4.7,"06:03:04",1
"17/02/08","06:20",0.0,3.0,70.7,1012.1,279.4,2.5,5.4,324.4,0.00,-1.8,4.8,"06:19:12",1
"17/02/08","06:30",0.0,3.0,70.3,1012.1,288.3,2.5,4.4,338.6,0.00,-1.8,4.8,"06:23:36",1
"17/02/08","06:40",0.0,3.0,70.2,1012.3,277.2,2.3,3.4,298.9,0.00,-1.9,4.6,"06:33:04",1
"17/02/08","06:50",0.0,3.1,70.4,1012.3,282.9,2.6,4.2,301.1,0.00,-1.7,4.7,"06:45:44",1
"17/02/08","07:00",0.0,3.1,70.7,1012.6,287.2,2.3,4.5,315.0,0.00,-1.7,4.8,"06:53:44",1
"17/02/08","07:10",0.0,3.0,71.3,1012.6,281.6,2.5,4.0,310.5,0.00,-1.6,4.8,"07:08:00",1
"17/02/08","07:20",0.0,3.1,71.0,1012.6,283.3,2.3,4.4,299.4,0.00,-1.6,4.6,"07:10:02",1
"17/02/08","07:30",0.0,3.1,71.2,1012.6,290.1,2.3,4.5,311.8,0.00,-1.6,4.7,"07:27:36",1
"17/02/08","07:40",0.0,3.2,71.4,1012.3,294.4,2.7,5.1,323.1,0.00,-1.4,4.7,"07:38:40",1
"17/02/08","07:50",0.0,3.2,71.5,1012.3,295.8,2.7,4.4,322.4,0.00,-1.4,4.9,"07:40:40",1
"17/02/08","08:00",0.0,3.3,71.9,1012.6,298.4,2.3,3.4,324.6,0.00,-1.2,4.7,"07:58:24",1
"17/02/08","08:10",0.0,3.4,71.9,1012.8,292.9,2.3,3.6,304.9,0.02,-1.1,4.7,"08:03:36",1
"17/02/08","08:20",0.0,3.4,71.4,1012.8,283.7,2.6,4.0,288.6,0.03,-1.2,4.7,"08:14:56",1
"17/02/08","08:30",0.0,3.7,71.0,1012.8,290.0,2.7,4.9,335.9,0.05,-1.0,4.7,"08:29:52",1
"17/02/08","08:40",0.0,4.0,70.5,1012.6,286.3,3.0,5.2,269.8,0.07,-0.8,5.0,"08:35:52",1
"17/02/08","08:50",0.0,4.1,70.0,1013.0,289.9,2.8,4.3,305.5,0.08,-0.8,4.9,"08:47:36",1
"17/02/08","09:00",0.0,4.3,68.0,1012.8,295.0,3.1,5.4,312.0,0.10,-1.0,5.0,"08:54:32",1
"17/02/08","09:10",0.0,4.7,67.2,1013.0,285.4,3.0,5.0,302.8,0.12,-0.8,5.1,"09:00:40",1
"17/02/08","09:20",0.0,5.2,66.2,1012.8,297.6,2.7,4.5,325.6,0.18,-0.5,5.3,"09:15:28",1
"17/02/08","09:30",0.0,5.4,64.2,1013.0,298.0,2.6,4.1,327.4,0.16,-0.8,5.2,"09:29:20",1
"17/02/08","09:40",0.0,5.1,64.1,1012.8,292.8,3.0,5.4,320.0,0.12,-1.1,5.3,"09:36:56",1
"17/02/08","09:50",0.0,5.8,64.5,1012.8,286.8,2.6,5.4,312.0,0.18,-0.3,5.4,"09:42:40",1
"17/02/08","10:00",0.0,6.1,60.1,1013.0,298.9,2.8,4.0,316.6,0.20,-1.0,5.5,"09:51:28",1
"17/02/08","10:10",0.0,6.0,58.5,1012.8,308.3,2.8,5.7,345.0,0.17,-1.5,5.7,"10:01:04",1
"17/02/08","10:20",0.0,6.4,57.3,1013.0,301.3,2.7,4.7,312.6,0.18,-1.4,5.7,"10:15:36",1
"17/02/08","10:30",0.0,6.4,59.2,1012.8,321.3,3.2,5.4,316.3,0.17,-0.9,5.8,"10:20:58",1
"17/02/08","10:40",0.0,6.4,55.2,1012.8,328.1,3.4,5.8,339.4,0.25,-1.9,6.1,"10:32:18",1
"17/02/08","10:50",0.0,7.4,54.6,1012.6,323.0,2.3,4.2,320.2,0.38,-1.1,6.0,"10:42:00",1
"17/02/08","11:00",0.0,7.2,55.1,1012.3,337.5,2.5,6.6,334.7,0.31,-1.2,6.2,"10:55:04",1
"17/02/08","11:10",0.0,7.2,55.9,1012.6,348.0,3.2,4.9,356.6,0.27,-1.0,6.1,"11:00:24",1
"17/02/08","11:20",0.0,7.0,55.3,1012.3,335.8,2.5,5.9,343.4,0.18,-1.3,6.6,"11:11:04",1
"17/02/08","11:30",0.0,6.8,56.2,1012.1,358.0,1.7,5.5,335.0,0.14,-1.3,6.7,"11:21:20",1
"17/02/08","11:40",0.0,7.1,53.9,1012.3,329.6,2.0,5.6,315.4,0.18,-1.6,6.7,"11:35:52",1
"17/02/08","11:50",0.0,7.5,51.3,1012.1,307.2,2.1,5.5,340.1,0.20,-1.9,6.9,"11:49:44",1
"17/02/08","12:00",0.0,7.3,53.0,1011.6,267.2,2.1,3.7,241.1,0.20,-1.6,6.8,"11:55:44",1
"17/02/08","12:10",0.0,7.6,53.5,1011.6,349.0,1.6,4.0,353.1,0.19,-1.2,6.8,"12:08:16",1
"17/02/08","12:20",0.0,7.4,52.8,1011.2,353.4,1.8,4.9,340.5,0.15,-1.6,7.3,"12:19:36",1
"17/02/08","12:30",0.0,7.5,53.4,1011.2,329.5,2.3,4.9,342.9,0.14,-1.3,7.1,"12:29:20",1
"17/02/08","12:40",0.0,7.4,54.3,1010.7,346.2,2.1,4.3,333.2,0.16,-1.2,7.2,"12:36:56",1
"17/02/08","12:50",0.0,7.7,52.6,1010.7,337.5,2.8,5.5,341.9,0.27,-1.3,7.1,"12:42:16",1
"17/02/08","13:00",0.0,7.8,52.9,1010.4,307.6,2.2,3.7,339.4,0.22,-1.2,7.1,"12:50:32",1
"17/02/08","13:10",0.0,7.4,53.1,1010.4,323.6,1.6,6.3,344.9,0.16,-1.5,7.3,"13:09:52",1
"17/02/08","13:20",0.0,7.4,55.1,1010.0,333.6,3.1,5.4,329.8,0.12,-1.0,7.3,"13:13:04",1
"17/02/08","13:30",0.0,8.0,54.7,1010.0,314.1,2.7,5.5,326.7,0.23,-0.5,7.2,"13:24:32",1
"17/02/08","13:40",0.0,7.4,53.8,1009.7,340.1,2.3,4.0,326.8,0.22,-1.3,7.5,"13:33:36",1
"17/02/08","13:50",0.0,7.6,55.2,1009.5,340.8,2.0,4.3,354.0,0.20,-0.8,7.7,"13:44:32",1
"17/02/08","14:00",0.0,8.7,52.7,1009.7,344.0,2.0,4.8,340.7,0.51,-0.4,7.6,"13:53:20",1
"17/02/08","14:10",0.0,8.3,55.7,1009.7,355.5,1.6,4.1,357.1,0.30,0.0,7.7,"14:08:00",1
"17/02/08","14:20",0.0,7.9,55.3,1010.0,9.9,2.0,4.2,344.9,0.13,-0.5,7.7,"14:14:40",1
"17/02/08","14:30",0.0,7.0,59.7,1009.5,1.0,2.8,5.2,15.0,0.10,-0.3,8.0,"14:22:56",1
"17/02/08","14:40",0.0,7.0,60.6,1009.5,338.2,3.2,5.4,333.0,0.08,-0.1,7.7,"14:34:08",1
"17/02/08","14:50",0.0,7.0,58.9,1009.7,333.2,3.2,4.4,322.6,0.11,-0.4,7.7,"14:40:02",1
"17/02/08","15:00",0.0,7.1,57.3,1009.5,309.8,2.1,3.5,316.6,0.11,-0.7,7.7,"14:50:08",1
"17/02/08","15:10",0.0,7.4,57.6,1009.5,294.3,2.1,3.3,319.1,0.08,-0.4,7.9,"15:04:16",1
"17/02/08","15:20",0.0,7.6,58.2,1010.0,329.5,2.1,4.3,308.9,0.09,0.0,7.8,"15:14:32",1
"17/02/08","15:30",0.0,7.4,58.2,1009.7,352.3,2.1,3.7,353.0,0.10,-0.2,7.6,"15:29:44",1
"17/02/08","15:40",0.0,7.3,59.7,1009.7,353.7,2.7,4.4,355.6,0.10,0.0,7.6,"15:38:48",1
"17/02/08","15:50",0.0,7.1,60.2,1009.7,346.9,3.2,6.7,336.6,0.13,0.0,7.6,"15:43:40",1
"17/02/08","16:00",0.0,7.2,59.6,1009.5,345.7,2.3,5.6,338.6,0.13,-0.1,7.4,"15:51:52",1
"17/02/08","16:10",0.0,7.2,62.1,1009.7,352.3,2.3,4.9,337.9,0.12,0.5,7.6,"16:04:32",1
"17/02/08","16:20",0.0,6.8,62.6,1009.5,359.1,2.6,5.7,15.4,0.06,0.2,7.4,"16:10:24",1
"17/02/08","16:30",0.0,6.5,64.7,1009.5,348.7,2.1,3.9,345.0,0.03,0.4,7.4,"16:26:16",1
"17/02/08","16:40",0.0,6.2,66.9,1009.5,344.1,2.2,5.2,344.1,0.03,0.6,7.3,"16:34:32",1
"17/02/08","16:50",0.0,6.2,67.0,1009.3,340.3,2.7,4.4,319.4,0.02,0.6,7.6,"16:42:56",1
"17/02/08","17:00",0.0,6.1,68.2,1009.5,334.4,2.3,4.4,350.2,0.02,0.7,7.4,"16:50:40",1
"17/02/08","17:10",0.0,5.8,68.4,1009.5,344.4,2.2,4.4,345.1,0.02,0.5,7.4,"17:05:44",1
"17/02/08","17:20",0.0,5.6,68.9,1009.3,343.5,2.7,6.8,345.6,0.01,0.4,7.4,"17:14:32",1
"17/02/08","17:30",0.0,5.3,69.7,1009.0,346.9,2.8,4.4,24.9,0.00,0.3,7.0,"17:27:48",1
"17/02/08","17:40",0.0,5.1,70.7,1009.0,340.6,3.0,5.6,339.1,0.00,0.3,7.1,"17:39:58",1
"17/02/08","17:50",0.0,4.7,71.0,1009.3,329.5,2.3,4.5,333.1,0.00,-0.1,7.2,"17:41:38",1
"17/02/08","18:00",0.0,4.3,71.9,1009.0,307.7,1.8,3.2,313.7,0.00,-0.3,7.0,"17:52:00",1
"17/02/08","18:10",0.0,3.9,73.7,1008.8,307.8,1.8,3.2,308.9,0.00,-0.3,6.8,"18:09:44",1
"17/02/08","18:20",0.0,3.9,74.9,1008.8,310.1,2.6,3.6,295.5,0.00,-0.1,6.8,"18:10:16",1
"17/02/08","18:30",0.0,3.8,75.8,1008.8,330.3,2.3,4.8,333.9,0.00,0.0,6.7,"18:26:08",1
"17/02/08","18:40",0.0,3.5,76.4,1008.8,326.3,2.0,2.8,333.5,0.00,-0.2,6.6,"18:30:48",1
"17/02/08","18:50",0.0,3.0,77.8,1009.0,302.6,1.3,2.4,316.7,0.00,-0.5,6.6,"18:42:56",1
"17/02/08","19:00",0.0,2.5,79.6,1008.8,307.3,1.7,2.2,314.3,0.00,-0.6,6.3,"18:55:48",1
"17/02/08","19:10",0.0,2.3,81.8,1008.6,318.3,2.2,2.9,325.0,0.00,-0.4,6.3,"19:03:40",1
"17/02/08","19:20",0.0,2.2,83.1,1008.6,312.9,2.7,3.3,312.9,0.00,-0.3,6.3,"19:15:12",1
"17/02/08","19:30",0.0,2.0,84.2,1008.6,298.7,2.3,3.4,309.9,0.00,-0.3,6.2,"19:25:10",1
"17/02/08","19:40",0.0,1.8,85.3,1008.3,291.5,2.3,3.2,308.3,0.00,-0.4,5.8,"19:34:58",1
"17/02/08","19:50",0.0,1.7,86.0,1008.1,279.9,2.1,2.5,276.5,0.00,-0.3,5.9,"19:45:44",1
"17/02/08","20:00",0.0,1.5,86.2,1008.1,295.3,2.1,2.7,303.1,0.00,-0.5,5.8,"19:50:12",1
"17/02/08","20:10",0.0,1.4,87.0,1007.8,290.8,1.0,1.7,293.8,0.00,-0.5,5.9,"20:00:02",1
"17/02/08","20:20",0.0,1.3,87.8,1007.8,298.5,2.1,2.8,308.2,0.00,-0.5,5.7,"20:10:24",1
"17/02/08","20:30",0.0,1.2,88.6,1008.1,291.3,1.7,2.4,314.6,0.00,-0.4,5.6,"20:24:16",1
"17/02/08","20:40",0.0,1.3,89.5,1008.1,294.7,2.6,3.2,314.7,0.00,-0.2,5.7,"20:39:32",1
"17/02/08","20:50",0.0,1.6,89.4,1007.8,294.9,3.0,4.1,320.7,0.00,0.1,5.5,"20:42:42",1
"17/02/08","21:00",0.0,1.7,88.9,1007.8,297.5,2.7,3.5,306.6,0.00,0.1,5.4,"20:58:02",1
"17/02/08","21:10",0.0,1.8,88.7,1007.8,314.3,2.6,3.4,320.6,0.00,0.2,5.6,"21:01:58",1
"17/02/08","21:20",0.0,1.8,88.5,1007.8,279.6,1.5,2.1,320.0,0.00,0.1,5.4,"21:10:20",1
"17/02/08","21:30",0.0,1.8,88.7,1007.6,288.5,2.3,3.1,313.9,0.00,0.2,5.5,"21:29:32",1
"17/02/08","21:40",0.0,1.9,88.5,1007.4,321.0,2.6,3.6,317.6,0.00,0.2,5.4,"21:33:58",1
"17/02/08","21:50",0.0,2.1,88.3,1007.6,311.5,2.3,3.5,340.0,0.00,0.4,5.6,"21:40:32",1
"17/02/08","22:00",0.0,2.0,88.4,1007.4,292.4,0.6,2.7,317.5,0.00,0.3,5.2,"21:59:04",1
"17/02/08","22:10",0.0,2.1,88.4,1007.1,306.1,1.7,3.2,311.8,0.00,0.4,5.5,"22:02:40",1
"17/02/08","22:20",0.0,2.1,87.9,1007.4,286.2,1.2,1.7,281.5,0.00,0.3,5.3,"22:17:12",1
"17/02/08","22:30",0.0,2.2,87.9,1007.6,298.6,1.7,2.5,325.9,0.00,0.4,5.4,"22:20:02",1
"17/02/08","22:40",0.0,2.3,88.1,1007.4,312.8,2.2,3.3,333.0,0.00,0.6,5.5,"22:34:24",1
"17/02/08","22:50",0.0,2.5,88.0,1007.1,320.4,2.6,3.7,330.9,0.00,0.8,5.6,"22:47:12",1
"17/02/08","23:00",0.0,2.5,87.6,1006.7,323.1,2.6,3.6,326.7,0.00,0.7,5.3,"22:53:52",1
"17/02/08","23:10",0.0,2.5,87.0,1006.7,313.5,2.0,3.2,325.6,0.00,0.6,5.5,"23:02:00",1
"17/02/08","23:20",0.0,2.4,86.9,1006.7,298.4,1.6,2.2,309.9,0.00,0.5,5.3,"23:15:20",1
"17/02/08","23:30",0.0,2.3,87.3,1006.7,297.6,1.5,1.9,315.1,0.00,0.4,5.4,"23:29:28",1
"17/02/08","23:40",0.0,2.2,87.7,1006.4,249.6,0.6,1.6,261.2,0.00,0.4,5.3,"23:39:12",1
"17/02/08","23:50",0.0,2.3,88.0,1006.4,272.9,1.3,1.7,275.2,0.00,0.6,5.2,"23:42:00",1
"17/02/08","24:00",0.0,2.2,88.3,1006.2,263.0,1.1,1.7,251.0,0.00,0.5,5.3,"23:50:02",1
